Location: Nicklin
(33.9436°N, 117.0142°W)
Time: 20:27:20
(UTC+00:00)

Daily predictions for brighter satellites

Satellite Brightness Start Highest point End
(mag) Time Altitude Azimuth Time Altitude Azimuth Time Altitude Azimuth
MSX 4.5 12:00:46 10° N 12:05:59 38° WNW 12:11:12 10° SW
Cosmos 1242 Rocket 2.8 12:02:47 10° N 12:06:13 70° E 12:09:38 10° SSE
Cosmos 1656 4.1 12:01:42 10° NW 12:06:42 39° WSW 12:11:43 10° S
Cosmos 2369 3.8 12:00:59 10° NNW 12:06:44 88° WSW 12:12:27 10° SSE
GOES 2 Rocket 4.0 12:01:58 10° W 12:07:42 42° SSW 12:12:14 10° ESE
Cosmos 1908 Rocket 3.9 12:05:32 10° SSW 12:09:50 48° W 12:14:10 10° N
ASTRO E2 2.8 12:08:02 10° W 12:11:56 58° S 12:15:50 10° ESE
CZ-2C R/B 2.5 12:07:20 10° N 12:12:07 60° WNW 12:16:43 10° SSW
